| time (UTC) | temp F | wind direction | speed knots | gust knots | rain 1hr in | rain 24hr in | rain mn in | humidity % | barometer mb |
| 20260510175738 | 73 | 257 | 0.9 | 2.6 | 0.00 | 0.00 | 0.00 | 47 | 1013.5 |
| 20260510175234 | 72 | 97 | 0.0 | 1.7 | 0.00 | 0.00 | 0.00 | 49 | 1013.7 |
| 20260510174731 | 71 | 63 | 0.0 | 1.7 | 0.00 | 0.00 | 0.00 | 49 | 1013.4 |
| 20260510174228 | 71 | 129 | 0.9 | 5.2 | 0.00 | 0.00 | 0.00 | 48 | 1013.3 |
| 20260510173724 | 72 | 197 | 2.6 | 4.3 | 0.00 | 0.00 | 0.00 | 50 | 1013.6 |
| 20260510173220 | 71 | 337 | 1.7 | 5.2 | 0.00 | 0.00 | 0.00 | 48 | 1013.7 |
| 20260510172715 | 71 | 323 | 2.6 | 5.2 | 0.00 | 0.00 | 0.00 | 48 | 1013.5 |
| 20260510172212 | 72 | 22 | 1.7 | 6.1 | 0.00 | 0.00 | 0.00 | 49 | 1013.5 |
| 20260510171709 | 71 | 80 | 0.0 | 4.3 | 0.00 | 0.00 | 0.00 | 49 | 1013.8 |
| 20260510171206 | 71 | 97 | 0.0 | 5.2 | 0.00 | 0.00 | 0.00 | 52 | 1013.5 |
| 20260510170703 | 70 | 123 | 0.9 | 5.2 | 0.00 | 0.00 | 0.00 | 50 | 1013.7 |
| 20260510170159 | 71 | 176 | 3.5 | 4.3 | 0.00 | 0.00 | 0.00 | 50 | 1013.5 |
| 20260510165655 | 71 | 35 | 0.0 | 1.7 | 0.00 | 0.00 | 0.00 | 58 | 1013.5 |
| 20260510165151 | 71 | 161 | 2.6 | 4.3 | 0.00 | 0.00 | 0.00 | 50 | 1013.4 |
| 20260510164649 | 71 | 65 | 0.0 | 4.3 | 0.00 | 0.00 | 0.00 | 54 | 1013.4 |
| 20260510164146 | 71 | 35 | 0.9 | 1.7 | 0.00 | 0.00 | 0.00 | 56 | 1013.3 |
| 20260510163641 | 71 | 247 | 3.5 | 6.1 | 0.00 | 0.00 | 0.00 | 60 | 1013.3 |
| 20260510163138 | 69 | 58 | 0.9 | 2.6 | 0.00 | 0.00 | 0.00 | 59 | 1013.1 |
| 20260510162637 | 69 | 53 | 2.6 | 4.3 | 0.00 | 0.00 | 0.00 | 56 | 1013.2 |
| 20260510162134 | 69 | 30 | 1.7 | 4.3 | 0.00 | 0.00 | 0.00 | 59 | 1013.2 |
| 20260510161630 | 69 | 65 | 0.0 | 2.6 | 0.00 | 0.00 | 0.00 | 62 | 1013.1 |
| 20260510161127 | 68 | 188 | 2.6 | 6.1 | 0.00 | 0.00 | 0.00 | 58 | 1012.8 |
| 20260510160624 | 69 | 15 | 1.7 | 1.7 | 0.00 | 0.00 | 0.00 | 60 | 1012.9 |
| 20260510160124 | 68 | 46 | 0.9 | 2.6 | 0.00 | 0.00 | 0.00 | 62 | 1012.9 |
| 20260510155620 | 68 | 59 | 2.6 | 6.1 | 0.00 | 0.00 | 0.00 | 62 | 1013.0 |
| 20260510155116 | 68 | 359 | 2.6 | 5.2 | 0.00 | 0.00 | 0.00 | 64 | 1012.9 |
| 20260510154612 | 67 | 320 | 0.9 | 4.3 | 0.00 | 0.00 | 0.00 | 65 | 1012.9 |
| 20260510154108 | 67 | 69 | 0.0 | 1.7 | 0.00 | 0.00 | 0.00 | 66 | 1012.8 |
| 20260510153603 | 67 | 146 | 0.9 | 4.3 | 0.00 | 0.00 | 0.00 | 67 | 1012.9 |
| 20260510153100 | 67 | 41 | 0.9 | 1.7 | 0.00 | 0.00 | 0.00 | 67 | 1012.8 |
| 20260510152556 | 67 | 52 | 0.9 | 0.9 | 0.00 | 0.00 | 0.00 | 67 | 1013.0 |
| 20260510152053 | 67 | 72 | 0.9 | 1.7 | 0.00 | 0.00 | 0.00 | 70 | 1013.0 |
| 20260510151550 | 67 | 56 | 0.9 | 6.1 | 0.00 | 0.00 | 0.00 | 67 | 1013.0 |
| 20260510151048 | 67 | 57 | 0.0 | 0.9 | 0.00 | 0.00 | 0.00 | 68 | 1012.9 |
| 20260510150547 | 67 | 7 | 1.7 | 2.6 | 0.00 | 0.00 | 0.00 | 67 | 1012.7 |
| 20260510150044 | 67 | 63 | 1.7 | 1.7 | 0.00 | 0.00 | 0.00 | 65 | 1012.9 |
| 20260510145541 | 68 | 294 | 0.9 | 1.7 | 0.00 | 0.00 | 0.00 | 67 | 1012.8 |
| 20260510145037 | 67 | 81 | 0.0 | 4.3 | 0.00 | 0.00 | 0.00 | 68 | 1012.8 |
| 20260510144534 | 67 | 96 | 0.0 | 5.2 | 0.00 | 0.00 | 0.00 | 70 | 1012.7 |
| 20260510144030 | 67 | 165 | 1.7 | 2.6 | 0.00 | 0.00 | 0.00 | 69 | 1012.9 |
| 20260510143525 | 67 | 151 | 0.9 | 2.6 | 0.00 | 0.00 | 0.00 | 68 | 1012.7 |
| 20260510143022 | 68 | 180 | 4.3 | 5.2 | 0.00 | 0.00 | 0.00 | 67 | 1012.7 |
| 20260510142519 | 69 | 56 | 0.0 | 0.9 | 0.00 | 0.00 | 0.00 | 67 | 1012.5 |
| 20260510142015 | 69 | 78 | 0.9 | 4.3 | 0.00 | 0.00 | 0.00 | 66 | 1012.8 |
| 20260510141512 | 68 | 61 | 0.0 | 4.3 | 0.00 | 0.00 | 0.00 | 68 | 1012.3 |
| 20260510141010 | 67 | 159 | 2.6 | 2.6 | 0.00 | 0.00 | 0.00 | 69 | 1012.3 |
| 20260510140506 | 66 | 333 | 2.6 | 5.2 | 0.00 | 0.00 | 0.00 | 68 | 1012.3 |
| 20260510140006 | 66 | 178 | 1.7 | 4.3 | 0.00 | 0.00 | 0.00 | 72 | 1012.4 |
| 20260510135501 | 66 | 305 | 2.6 | 4.3 | 0.00 | 0.00 | 0.00 | 69 | 1012.2 |
| 20260510134958 | 66 | 126 | 3.5 | 4.3 | 0.00 | 0.00 | 0.00 | 69 | 1011.9 |
| 20260510134455 | 65 | 74 | 0.9 | 4.3 | 0.00 | 0.00 | 0.00 | 70 | 1011.8 |
| 20260510133952 | 65 | 40 | 0.0 | 1.7 | 0.00 | 0.00 | 0.00 | 73 | 1011.6 |
| 20260510133448 | 64 | 173 | 2.6 | 4.3 | 0.00 | 0.00 | 0.00 | 71 | 1011.7 |
| 20260510132944 | 64 | 84 | 0.0 | 5.2 | 0.00 | 0.00 | 0.00 | 78 | 1011.4 |
| 20260510132441 | 63 | 80 | 0.9 | 2.6 | 0.00 | 0.00 | 0.00 | 79 | 1011.2 |
| 20260510131938 | 63 | 125 | 1.7 | 1.7 | 0.00 | 0.00 | 0.00 | 80 | 1011.1 |
| 20260510131435 | 62 | 118 | 0.0 | 0.9 | 0.00 | 0.00 | 0.00 | 85 | 1011.2 |
| 20260510130932 | 62 | 75 | 0.0 | 0.9 | 0.00 | 0.00 | 0.00 | 87 | 1011.3 |
| 20260510130429 | 61 | 79 | 0.0 | 0.9 | 0.00 | 0.00 | 0.00 | 89 | 1011.2 |
| 20260510125926 | 60 | 89 | 0.0 | 0.0 | 0.00 | 0.00 | 0.00 | 89 | 1011.0 |
| 20260510125421 | 60 | 91 | 0.0 | 0.0 | 0.00 | 0.00 | 0.00 | 90 | 1011.0 |
| 20260510124919 | 59 | 91 | 0.0 | 0.9 | 0.00 | 0.00 | 0.00 | 91 | 1011.1 |
| 20260510124415 | 58 | 80 | 0.0 | 2.6 | 0.00 | 0.00 | 0.00 | 93 | 1011.0 |
| 20260510123912 | 57 | 97 | 0.0 | 0.9 | 0.00 | 0.00 | 0.00 | 94 | 1011.1 |
| 20260510123407 | 57 | 83 | 0.0 | 1.7 | 0.00 | 0.00 | 0.00 | 97 | 1011.1 |
| 20260510122904 | 56 | 80 | 0.0 | 0.9 | 0.00 | 0.00 | 0.00 | 98 | 1011.0 |
| 20260510122359 | 55 | 82 | 0.0 | 0.0 | 0.00 | 0.00 | 0.00 | 99 | 1011.0 |
| 20260510121856 | 55 | 76 | 0.9 | 0.9 | 0.00 | 0.00 | 0.00 | 99 | 1010.7 |
| 20260510121354 | 54 | 89 | 0.0 | 0.0 | 0.00 | 0.00 | 0.00 | 99 | 1010.8 |
| 20260510120851 | 54 | 76 | 0.0 | 0.9 | 0.00 | 0.00 | 0.00 | 99 | 1010.7 |
| 20260510120348 | 53 | 82 | 0.0 | 0.0 | 0.00 | 0.00 | 0.00 | 99 | 1010.7 |
| 20260510115843 | 53 | 82 | 0.0 | 0.0 | 0.00 | 0.00 | 0.00 | 99 | 1010.4 |
| 20260510115341 | 53 | 76 | 0.0 | 0.0 | 0.00 | 0.00 | 0.00 | 99 | 1010.5 |
| 20260510114836 | 53 | 77 | 0.0 | 0.0 | 0.00 | 0.00 | 0.00 | 99 | 1010.5 |
| 20260510114333 | 52 | 76 | 0.0 | 0.0 | 0.00 | 0.00 | 0.00 | 99 | 1010.6 |
| 20260510113833 | 52 | 82 | 0.0 | 0.0 | 0.00 | 0.00 | 0.00 | 99 | 1010.5 |
| 20260510113330 | 52 | 83 | 0.0 | 0.0 | 0.00 | 0.00 | 0.00 | 99 | 1010.5 |
| 20260510112827 | 52 | 82 | 0.0 | 0.0 | 0.00 | 0.00 | 0.00 | 99 | 1010.6 |
| 20260510112324 | 52 | 82 | 0.0 | 0.0 | 0.00 | 0.00 | 0.00 | 99 | 1010.5 |
| 20260510111820 | 52 | 89 | 0.0 | 0.0 | 0.00 | 0.00 | 0.00 | 99 | 1010.3 |
| 20260510111317 | 52 | 95 | 0.0 | 0.0 | 0.00 | 0.00 | 0.00 | 99 | 1010.2 |
| 20260510110817 | 52 | 76 | 0.0 | 0.0 | 0.00 | 0.00 | 0.00 | 99 | 1010.0 |
| 20260510110315 | 52 | 76 | 0.0 | 0.0 | 0.00 | 0.00 | 0.00 | 99 | 1009.9 |
| 20260510105810 | 52 | 76 | 0.0 | 0.0 | 0.00 | 0.00 | 0.00 | 99 | 1010.0 |
| 20260510105310 | 52 | 76 | 0.0 | 0.0 | 0.00 | 0.00 | 0.00 | 99 | 1009.9 |
| 20260510104807 | 52 | 76 | 0.0 | 0.0 | 0.00 | 0.00 | 0.00 | 99 | 1009.9 |
| 20260510104304 | 52 | 76 | 0.0 | 0.0 | 0.00 | 0.00 | 0.00 | 99 | 1009.6 |
| 20260510103800 | 52 | 76 | 0.0 | 0.0 | 0.00 | 0.00 | 0.00 | 99 | 1009.7 |
| 20260510103257 | 52 | 76 | 0.0 | 0.0 | 0.00 | 0.00 | 0.00 | 99 | 1009.8 |
| 20260510102752 | 52 | 76 | 0.0 | 0.0 | 0.00 | 0.00 | 0.00 | 99 | 1009.4 |
| 20260510102248 | 52 | 76 | 0.0 | 0.0 | 0.00 | 0.00 | 0.00 | 99 | 1009.5 |
| 20260510101745 | 52 | 76 | 0.0 | 0.0 | 0.00 | 0.00 | 0.00 | 99 | 1009.5 |
| 20260510101244 | 52 | 75 | 0.0 | 0.0 | 0.00 | 0.00 | 0.00 | 99 | 1009.4 |
| 20260510100739 | 52 | 75 | 0.0 | 0.0 | 0.00 | 0.00 | 0.00 | 99 | 1009.5 |
| 20260510100238 | 52 | 76 | 0.0 | 0.0 | 0.00 | 0.00 | 0.00 | 99 | 1009.6 |
| 20260510095733 | 52 | 63 | 0.0 | 0.0 | 0.00 | 0.00 | 0.00 | 99 | 1009.3 |
| 20260510095228 | 52 | 63 | 0.0 | 0.0 | 0.00 | 0.00 | 0.00 | 99 | 1009.3 |
| 20260510094727 | 52 | 63 | 0.0 | 0.0 | 0.00 | 0.00 | 0.00 | 99 | 1009.5 |
| 20260510094223 | 52 | 62 | 0.0 | 0.0 | 0.00 | 0.00 | 0.00 | 99 | 1009.6 |
| 20260510093719 | 52 | 66 | 0.0 | 0.0 | 0.00 | 0.00 | 0.00 | 99 | 1009.0 |
| 20260510093216 | 52 | 70 | 0.0 | 0.0 | 0.00 | 0.00 | 0.00 | 99 | 1009.0 |
| 20260510092712 | 52 | 70 | 0.0 | 0.0 | 0.00 | 0.00 | 0.00 | 99 | 1009.1 |
| 20260510092208 | 52 | 70 | 0.0 | 0.0 | 0.00 | 0.00 | 0.00 | 99 | 1008.7 |
| 20260510091704 | 52 | 70 | 0.0 | 0.0 | 0.00 | 0.00 | 0.00 | 99 | 1008.7 |
| 20260510091200 | 52 | 70 | 0.0 | 0.0 | 0.00 | 0.00 | 0.00 | 99 | 1008.7 |
| 20260510090657 | 52 | 70 | 0.0 | 0.0 | 0.00 | 0.00 | 0.00 | 99 | 1008.4 |
| 20260510090154 | 52 | 70 | 0.0 | 0.0 | 0.00 | 0.00 | 0.00 | 99 | 1008.4 |
| 20260510085649 | 52 | 70 | 0.0 | 0.0 | 0.00 | 0.00 | 0.00 | 99 | 1008.7 |
| 20260510085144 | 52 | 69 | 0.0 | 0.0 | 0.00 | 0.00 | 0.00 | 99 | 1008.7 |
| 20260510084641 | 52 | 76 | 0.0 | 0.0 | 0.00 | 0.00 | 0.00 | 99 | 1008.7 |
| 20260510084137 | 52 | 76 | 0.0 | 0.0 | 0.00 | 0.00 | 0.00 | 99 | 1008.7 |
| 20260510083634 | 52 | 76 | 0.0 | 0.0 | 0.00 | 0.00 | 0.00 | 99 | 1008.7 |
| 20260510083131 | 52 | 76 | 0.0 | 0.0 | 0.00 | 0.00 | 0.00 | 99 | 1008.9 |
| 20260510082627 | 51 | 76 | 0.0 | 0.0 | 0.00 | 0.00 | 0.00 | 99 | 1009.0 |
| 20260510082123 | 52 | 76 | 0.0 | 0.0 | 0.00 | 0.00 | 0.00 | 99 | 1008.9 |
| 20260510081623 | 52 | 75 | 0.0 | 0.0 | 0.00 | 0.00 | 0.00 | 99 | 1008.8 |
| 20260510081120 | 51 | 76 | 0.0 | 0.0 | 0.00 | 0.00 | 0.00 | 99 | 1008.5 |
| 20260510080619 | 51 | 76 | 0.0 | 0.0 | 0.00 | 0.00 | 0.00 | 99 | 1008.7 |
| 20260510080116 | 51 | 73 | 0.0 | 0.0 | 0.00 | 0.00 | 0.00 | 99 | 1008.9 |
| 20260510075608 | 51 | 76 | 0.0 | 0.0 | 0.00 | 0.00 | 0.00 | 99 | 1008.7 |
| 20260510075104 | 51 | 62 | 0.0 | 0.0 | 0.00 | 0.00 | 0.00 | 99 | 1008.8 |
| 20260510074601 | 51 | 63 | 0.0 | 0.0 | 0.00 | 0.00 | 0.00 | 99 | 1008.5 |
| 20260510074056 | 51 | 63 | 0.0 | 0.0 | 0.00 | 0.00 | 0.00 | 99 | 1008.5 |
| 20260510073553 | 51 | 63 | 0.0 | 0.0 | 0.00 | 0.00 | 0.00 | 99 | 1008.3 |
| 20260510073050 | 51 | 62 | 0.0 | 0.0 | 0.00 | 0.00 | 0.00 | 99 | 1008.5 |
| 20260510072547 | 51 | 62 | 0.0 | 0.0 | 0.00 | 0.00 | 0.00 | 99 | 1008.5 |
| 20260510072042 | 51 | 63 | 0.0 | 0.0 | 0.00 | 0.00 | 0.00 | 99 | 1008.8 |
| 20260510071539 | 51 | 67 | 0.0 | 0.0 | 0.00 | 0.00 | 0.00 | 99 | 1008.5 |
| 20260510071037 | 51 | 79 | 0.0 | 0.0 | 0.00 | 0.00 | 0.00 | 99 | 1008.5 |
| 20260510070534 | 51 | 80 | 0.0 | 0.0 | 0.00 | 0.00 | 0.00 | 99 | 1008.8 |
| 20260510070030 | 51 | 62 | 0.0 | 0.0 | 0.00 | 0.00 | 0.00 | 99 | 1008.8 |
| 20260510065527 | 50 | 62 | 0.0 | 0.0 | 0.00 | 0.00 | 0.00 | 99 | 1008.7 |
| 20260510065023 | 51 | 79 | 0.0 | 0.0 | 0.00 | 0.00 | 0.00 | 99 | 1008.8 |
| 20260510064520 | 51 | 73 | 0.0 | 0.0 | 0.00 | 0.00 | 0.00 | 99 | 1008.8 |
| 20260510064016 | 51 | 62 | 0.0 | 0.0 | 0.00 | 0.00 | 0.00 | 99 | 1008.8 |
| 20260510063513 | 51 | 62 | 0.0 | 0.0 | 0.00 | 0.00 | 0.00 | 99 | 1008.3 |
| 20260510063011 | 51 | 63 | 0.0 | 0.0 | 0.00 | 0.00 | 0.00 | 99 | 1008.4 |
| 20260510062506 | 51 | 63 | 0.0 | 0.0 | 0.00 | 0.00 | 0.00 | 99 | 1008.3 |
| 20260510062001 | 51 | 62 | 0.0 | 0.0 | 0.00 | 0.00 | 0.00 | 99 | 1008.3 |
| 20260510061458 | 51 | 62 | 0.0 | 0.0 | 0.00 | 0.00 | 0.00 | 99 | 1008.5 |
| 20260510060955 | 51 | 62 | 0.0 | 0.0 | 0.00 | 0.00 | 0.00 | 99 | 1008.2 |
| 20260510060451 | 51 | 62 | 0.0 | 0.0 | 0.00 | 0.00 | 0.00 | 99 | 1008.5 |
| 20260510055947 | 51 | 62 | 0.0 | 0.0 | 0.00 | 0.00 | 0.00 | 98 | 1008.4 |
| 20260510055443 | 51 | 63 | 0.0 | 0.0 | 0.00 | 0.00 | 0.00 | 98 | 1008.3 |
| 20260510054942 | 51 | 63 | 0.0 | 0.0 | 0.00 | 0.00 | 0.00 | 98 | 1008.4 |
| 20260510054437 | 51 | 62 | 0.0 | 0.0 | 0.00 | 0.00 | 0.00 | 98 | 1008.5 |
| 20260510053932 | 51 | 63 | 0.0 | 0.0 | 0.00 | 0.00 | 0.00 | 98 | 1008.2 |
| 20260510053428 | 52 | 63 | 0.0 | 0.0 | 0.00 | 0.00 | 0.00 | 98 | 1008.3 |
| 20260510052924 | 52 | 63 | 0.0 | 0.0 | 0.00 | 0.00 | 0.00 | 98 | 1008.1 |
| 20260510052420 | 52 | 62 | 0.0 | 0.0 | 0.00 | 0.00 | 0.00 | 98 | 1008.2 |
| 20260510051916 | 52 | 62 | 0.0 | 0.0 | 0.00 | 0.00 | 0.00 | 97 | 1008.2 |
| 20260510051413 | 52 | 63 | 0.0 | 0.0 | 0.00 | 0.00 | 0.00 | 97 | 1008.1 |
| 20260510050909 | 52 | 62 | 0.0 | 0.0 | 0.00 | 0.00 | 0.00 | 97 | 1008.4 |
| 20260510050406 | 52 | 62 | 0.0 | 0.0 | 0.00 | 0.00 | 0.00 | 97 | 1008.2 |
| 20260510045903 | 52 | 62 | 0.0 | 0.0 | 0.00 | 0.00 | 0.00 | 97 | 1008.2 |
| 20260510045400 | 52 | 51 | 0.0 | 0.0 | 0.00 | 0.00 | 0.00 | 97 | 1008.4 |
| 20260510044857 | 52 | 74 | 0.0 | 0.0 | 0.00 | 0.00 | 0.00 | 97 | 1008.2 |
| 20260510044354 | 52 | 74 | 0.0 | 0.0 | 0.00 | 0.00 | 0.00 | 97 | 1007.9 |
| 20260510043851 | 52 | 73 | 0.0 | 0.0 | 0.00 | 0.00 | 0.00 | 97 | 1007.8 |
| 20260510043346 | 52 | 74 | 0.0 | 0.0 | 0.00 | 0.00 | 0.00 | 96 | 1007.6 |
| 20260510042844 | 53 | 74 | 0.0 | 0.0 | 0.00 | 0.00 | 0.00 | 96 | 1007.5 |
| 20260510042340 | 53 | 73 | 0.0 | 0.0 | 0.00 | 0.00 | 0.00 | 96 | 1007.6 |
| 20260510041836 | 53 | 74 | 0.0 | 0.0 | 0.00 | 0.00 | 0.00 | 96 | 1007.6 |
| 20260510041334 | 53 | 73 | 0.0 | 0.0 | 0.00 | 0.00 | 0.00 | 96 | 1007.7 |
| 20260510040831 | 53 | 73 | 0.0 | 0.0 | 0.00 | 0.00 | 0.00 | 95 | 1007.6 |
| 20260510040328 | 53 | 73 | 0.0 | 0.0 | 0.00 | 0.00 | 0.00 | 95 | 1007.6 |
| 20260510035823 | 53 | 73 | 0.0 | 0.0 | 0.00 | 0.00 | 0.00 | 95 | 1007.5 |
| 20260510035320 | 53 | 74 | 0.0 | 0.0 | 0.00 | 0.00 | 0.00 | 94 | 1007.8 |
| 20260510034815 | 54 | 73 | 0.0 | 0.0 | 0.00 | 0.00 | 0.00 | 94 | 1007.8 |
| 20260510034313 | 54 | 73 | 0.0 | 0.0 | 0.00 | 0.00 | 0.00 | 93 | 1007.6 |
| 20260510033809 | 54 | 74 | 0.0 | 0.0 | 0.00 | 0.00 | 0.00 | 93 | 1007.5 |
| 20260510033307 | 54 | 73 | 0.0 | 0.0 | 0.00 | 0.00 | 0.00 | 93 | 1007.5 |
| 20260510032803 | 54 | 73 | 0.0 | 0.0 | 0.00 | 0.00 | 0.00 | 93 | 1007.4 |
| 20260510032259 | 54 | 73 | 0.0 | 0.0 | 0.00 | 0.00 | 0.00 | 93 | 1007.4 |
| 20260510031755 | 55 | 73 | 0.0 | 0.0 | 0.00 | 0.00 | 0.00 | 93 | 1007.3 |
| 20260510031252 | 55 | 73 | 0.0 | 0.0 | 0.00 | 0.00 | 0.00 | 93 | 1007.4 |
| 20260510030750 | 55 | 73 | 0.0 | 0.0 | 0.00 | 0.00 | 0.00 | 92 | 1007.0 |
| 20260510030248 | 55 | 73 | 0.0 | 0.0 | 0.00 | 0.00 | 0.00 | 92 | 1007.3 |
| 20260510025745 | 56 | 73 | 0.0 | 0.0 | 0.00 | 0.00 | 0.00 | 92 | 1007.0 |
| 20260510025243 | 56 | 73 | 0.0 | 0.0 | 0.00 | 0.00 | 0.00 | 91 | 1007.0 |
| 20260510024739 | 56 | 73 | 0.0 | 0.0 | 0.00 | 0.00 | 0.00 | 91 | 1007.0 |
| 20260510024236 | 56 | 73 | 0.0 | 0.0 | 0.00 | 0.00 | 0.00 | 91 | 1006.7 |
| 20260510023732 | 56 | 74 | 0.0 | 0.0 | 0.00 | 0.00 | 0.00 | 90 | 1006.7 |
| 20260510023229 | 57 | 74 | 0.0 | 0.0 | 0.00 | 0.00 | 0.00 | 90 | 1006.6 |
| 20260510022725 | 57 | 73 | 0.0 | 0.0 | 0.00 | 0.00 | 0.00 | 90 | 1006.8 |
| 20260510022225 | 57 | 74 | 0.0 | 0.0 | 0.00 | 0.00 | 0.00 | 89 | 1006.4 |
| 20260510021720 | 57 | 74 | 0.0 | 0.0 | 0.00 | 0.00 | 0.00 | 89 | 1006.4 |
| 20260510021218 | 58 | 73 | 0.0 | 0.0 | 0.00 | 0.00 | 0.00 | 88 | 1006.2 |
| 20260510020713 | 58 | 74 | 0.0 | 0.0 | 0.00 | 0.00 | 0.00 | 88 | 1006.1 |
| 20260510020208 | 59 | 74 | 0.0 | 0.0 | 0.00 | 0.00 | 0.00 | 88 | 1006.0 |
| 20260510015704 | 59 | 74 | 0.0 | 0.0 | 0.00 | 0.00 | 0.00 | 87 | 1006.0 |
| 20260510015201 | 59 | 74 | 0.0 | 0.0 | 0.00 | 0.00 | 0.00 | 86 | 1005.8 |
| 20260510014701 | 59 | 74 | 0.0 | 0.0 | 0.00 | 0.00 | 0.00 | 86 | 1006.0 |
| 20260510014200 | 60 | 73 | 0.0 | 0.0 | 0.00 | 0.00 | 0.00 | 85 | 1005.6 |
| 20260510013700 | 60 | 73 | 0.0 | 0.0 | 0.00 | 0.00 | 0.00 | 85 | 1005.6 |
| 20260510013156 | 60 | 74 | 0.0 | 0.0 | 0.00 | 0.00 | 0.00 | 84 | 1005.5 |
| 20260510012655 | 61 | 73 | 0.0 | 0.0 | 0.00 | 0.00 | 0.00 | 83 | 1005.5 |
| 20260510012151 | 61 | 74 | 0.0 | 0.0 | 0.00 | 0.00 | 0.00 | 83 | 1005.4 |
| 20260510011646 | 62 | 74 | 0.0 | 0.0 | 0.00 | 0.00 | 0.00 | 82 | 1005.5 |
| 20260510011142 | 62 | 73 | 0.0 | 0.0 | 0.00 | 0.00 | 0.00 | 80 | 1005.4 |
| 20260510010638 | 63 | 73 | 0.0 | 0.0 | 0.00 | 0.00 | 0.00 | 79 | 1005.4 |
| 20260510010136 | 63 | 74 | 0.0 | 0.0 | 0.00 | 0.00 | 0.00 | 78 | 1005.2 |
| 20260510005631 | 64 | 63 | 0.0 | 0.0 | 0.00 | 0.00 | 0.00 | 78 | 1005.5 |
| 20260510005129 | 65 | 63 | 0.0 | 0.0 | 0.00 | 0.00 | 0.00 | 75 | 1005.2 |
| 20260510004627 | 65 | 56 | 0.0 | 0.0 | 0.00 | 0.00 | 0.00 | 73 | 1005.0 |
| 20260510004125 | 66 | 63 | 0.0 | 0.0 | 0.00 | 0.00 | 0.00 | 74 | 1005.2 |
| 20260510003621 | 66 | 63 | 0.0 | 0.0 | 0.00 | 0.00 | 0.00 | 71 | 1005.0 |
| 20260510003117 | 67 | 63 | 0.0 | 0.0 | 0.00 | 0.00 | 0.00 | 68 | 1004.8 |
| 20260510002612 | 68 | 63 | 0.0 | 0.0 | 0.00 | 0.00 | 0.00 | 66 | 1004.8 |
| 20260510002109 | 69 | 62 | 0.0 | 0.0 | 0.00 | 0.00 | 0.00 | 63 | 1004.9 |
| 20260510001606 | 70 | 63 | 0.0 | 0.0 | 0.00 | 0.00 | 0.00 | 60 | 1005.0 |
| 20260510001105 | 70 | 63 | 0.0 | 0.0 | 0.00 | 0.00 | 0.00 | 58 | 1005.1 |
| 20260510000605 | 71 | 63 | 0.0 | 0.0 | 0.00 | 0.00 | 0.00 | 55 | 1005.1 |
| 20260509235558 | 72 | 63 | 0.0 | 0.0 | 0.00 | 0.00 | 0.00 | 49 | 1005.0 |
| 20260509235055 | 73 | 63 | 0.0 | 0.0 | 0.00 | 0.00 | 0.00 | 49 | 1005.1 |
| 20260509234551 | 73 | 63 | 0.0 | 0.0 | 0.00 | 0.00 | 0.00 | 49 | 1005.0 |
| 20260509234049 | 73 | 63 | 0.0 | 0.0 | 0.00 | 0.00 | 0.00 | 47 | 1005.1 |
| 20260509233547 | 74 | 63 | 0.0 | 0.0 | 0.00 | 0.00 | 0.00 | 50 | 1005.0 |
| 20260509233044 | 75 | 63 | 0.0 | 0.0 | 0.00 | 0.00 | 0.00 | 52 | 1005.1 |
| 20260509232540 | 75 | 63 | 0.0 | 0.0 | 0.00 | 0.00 | 0.00 | 46 | 1005.1 |
| 20260509232037 | 76 | 63 | 0.0 | 0.0 | 0.00 | 0.00 | 0.00 | 46 | 1005.2 |
| 20260509231533 | 77 | 63 | 0.0 | 0.0 | 0.00 | 0.00 | 0.00 | 40 | 1005.1 |
| 20260509231032 | 77 | 63 | 0.0 | 0.0 | 0.00 | 0.00 | 0.00 | 42 | 1005.1 |
| 20260509230528 | 78 | 67 | 0.0 | 0.0 | 0.00 | 0.00 | 0.00 | 38 | 1005.2 |
| 20260509230025 | 79 | 90 | 0.0 | 0.0 | 0.00 | 0.00 | 0.00 | 36 | 1005.2 |
| 20260509225520 | 79 | 63 | 0.0 | 0.9 | 0.00 | 0.00 | 0.00 | 34 | 1005.3 |
| 20260509225016 | 80 | 89 | 0.0 | 1.7 | 0.00 | 0.00 | 0.00 | 32 | 1005.5 |
| 20260509224512 | 81 | 69 | 0.9 | 0.9 | 0.00 | 0.00 | 0.00 | 38 | 1005.1 |
| 20260509224009 | 81 | 80 | 0.0 | 0.0 | 0.00 | 0.00 | 0.00 | 39 | 1005.5 |
| 20260509223505 | 82 | 64 | 0.0 | 0.0 | 0.00 | 0.00 | 0.00 | 37 | 1005.2 |
| 20260509223004 | 81 | 64 | 0.0 | 0.0 | 0.00 | 0.00 | 0.00 | 35 | 1005.2 |
| 20260509222459 | 80 | 97 | 0.0 | 0.9 | 0.00 | 0.00 | 0.00 | 35 | 1005.0 |
| 20260509221955 | 81 | 87 | 0.0 | 2.6 | 0.00 | 0.00 | 0.00 | 29 | 1005.3 |
| 20260509221451 | 81 | 67 | 0.0 | 1.7 | 0.00 | 0.00 | 0.00 | 32 | 1005.2 |
| 20260509220947 | 82 | 123 | 0.0 | 0.0 | 0.00 | 0.00 | 0.00 | 34 | 1005.2 |
| 20260509220443 | 82 | 90 | 0.0 | 0.0 | 0.00 | 0.00 | 0.00 | 31 | 1005.1 |
| 20260509215939 | 81 | 92 | 0.0 | 0.0 | 0.00 | 0.00 | 0.00 | 33 | 1005.4 |
| 20260509215435 | 81 | 93 | 0.0 | 0.0 | 0.00 | 0.00 | 0.00 | 33 | 1005.3 |
| 20260509214932 | 81 | 96 | 0.0 | 0.0 | 0.00 | 0.00 | 0.00 | 33 | 1005.3 |
| 20260509214430 | 81 | 94 | 0.0 | 0.0 | 0.00 | 0.00 | 0.00 | 32 | 1005.3 |
| 20260509213926 | 81 | 97 | 0.0 | 1.7 | 0.00 | 0.00 | 0.00 | 28 | 1005.2 |
| 20260509213422 | 82 | 100 | 0.0 | 1.7 | 0.00 | 0.00 | 0.00 | 28 | 1005.1 |
| 20260509212920 | 81 | 79 | 0.0 | 0.0 | 0.00 | 0.00 | 0.00 | 28 | 1005.2 |
| 20260509212417 | 81 | 63 | 0.0 | 0.9 | 0.00 | 0.00 | 0.00 | 28 | 1005.3 |
| 20260509211913 | 81 | 17 | 0.9 | 2.6 | 0.00 | 0.00 | 0.00 | 31 | 1005.6 |
| 20260509211409 | 81 | 91 | 1.7 | 1.7 | 0.00 | 0.00 | 0.00 | 30 | 1005.5 |
| 20260509210905 | 81 | 23 | 1.7 | 2.6 | 0.00 | 0.00 | 0.00 | 32 | 1005.4 |
| 20260509210403 | 81 | 63 | 0.9 | 2.6 | 0.00 | 0.00 | 0.00 | 30 | 1005.5 |
| 20260509205858 | 81 | 53 | 0.9 | 1.7 | 0.00 | 0.00 | 0.00 | 30 | 1005.6 |
| 20260509205353 | 81 | 29 | 1.7 | 2.6 | 0.00 | 0.00 | 0.00 | 30 | 1005.4 |
| 20260509204850 | 81 | 153 | 1.7 | 1.7 | 0.00 | 0.00 | 0.00 | 30 | 1006.1 |
| 20260509204346 | 82 | 68 | 0.0 | 0.0 | 0.00 | 0.00 | 0.00 | 31 | 1006.0 |
| 20260509203842 | 81 | 60 | 0.0 | 0.9 | 0.00 | 0.00 | 0.00 | 34 | 1005.9 |
| 20260509203338 | 81 | 53 | 0.0 | 1.7 | 0.00 | 0.00 | 0.00 | 30 | 1005.8 |
| 20260509202836 | 82 | 24 | 0.9 | 1.7 | 0.00 | 0.00 | 0.00 | 31 | 1006.0 |
| 20260509202332 | 82 | 91 | 0.0 | 1.7 | 0.00 | 0.00 | 0.00 | 29 | 1006.2 |
| 20260509201831 | 82 | 86 | 0.0 | 0.9 | 0.00 | 0.00 | 0.00 | 29 | 1006.2 |
| 20260509201328 | 83 | 68 | 0.0 | 6.1 | 0.00 | 0.00 | 0.00 | 30 | 1006.2 |
| 20260509200825 | 83 | 43 | 0.9 | 2.6 | 0.00 | 0.00 | 0.00 | 30 | 1006.2 |
| 20260509200320 | 84 | 122 | 0.9 | 2.6 | 0.00 | 0.00 | 0.00 | 31 | 1006.4 |
| 20260509195816 | 84 | 67 | 0.9 | 2.6 | 0.00 | 0.00 | 0.00 | 31 | 1006.3 |
| 20260509195311 | 84 | 80 | 0.0 | 0.0 | 0.00 | 0.00 | 0.00 | 29 | 1006.4 |
| 20260509194810 | 85 | 70 | 0.0 | 0.0 | 0.00 | 0.00 | 0.00 | 26 | 1006.1 |
| 20260509194307 | 84 | 67 | 0.0 | 0.9 | 0.00 | 0.00 | 0.00 | 27 | 1006.4 |
| 20260509193804 | 85 | 87 | 0.0 | 0.0 | 0.00 | 0.00 | 0.00 | 30 | 1006.4 |
| 20260509193304 | 85 | 133 | 0.0 | 2.6 | 0.00 | 0.00 | 0.00 | 33 | 1006.3 |
| 20260509192800 | 85 | 132 | 0.0 | 0.9 | 0.00 | 0.00 | 0.00 | 37 | 1006.5 |
| 20260509192256 | 85 | 110 | 0.0 | 2.6 | 0.00 | 0.00 | 0.00 | 31 | 1006.4 |
| 20260509191751 | 85 | 60 | 0.0 | 0.0 | 0.00 | 0.00 | 0.00 | 32 | 1006.7 |
| 20260509191248 | 84 | 63 | 0.0 | 0.0 | 0.00 | 0.00 | 0.00 | 29 | 1006.3 |
| 20260509190743 | 85 | 95 | 0.0 | 1.7 | 0.00 | 0.00 | 0.00 | 30 | 1006.5 |
| 20260509190241 | 85 | 7 | 0.9 | 1.7 | 0.00 | 0.00 | 0.00 | 30 | 1006.7 |
| 20260509185738 | 84 | 102 | 0.9 | 2.6 | 0.00 | 0.00 | 0.00 | 30 | 1006.4 |
| 20260509185234 | 85 | 49 | 0.0 | 1.7 | 0.00 | 0.00 | 0.00 | 28 | 1006.5 |
| 20260509184732 | 85 | 109 | 0.0 | 0.9 | 0.00 | 0.00 | 0.00 | 27 | 1006.3 |
| 20260509184229 | 85 | 93 | 0.9 | 1.7 | 0.00 | 0.00 | 0.00 | 36 | 1006.5 |
| 20260509183725 | 85 | 149 | 1.7 | 2.6 | 0.00 | 0.00 | 0.00 | 26 | 1006.5 |
| 20260509183221 | 85 | 104 | 0.0 | 0.0 | 0.00 | 0.00 | 0.00 | 29 | 1006.5 |
| 20260509182716 | 85 | 12 | 1.7 | 2.6 | 0.00 | 0.00 | 0.00 | 29 | 1006.6 |
| 20260509182214 | 85 | 335 | 1.7 | 2.6 | 0.00 | 0.00 | 0.00 | 28 | 1006.6 |
| 20260509181711 | 84 | 118 | 0.0 | 0.0 | 0.00 | 0.00 | 0.00 | 35 | 1006.5 |
| 20260509181209 | 84 | 154 | 0.0 | 4.3 | 0.00 | 0.00 | 0.00 | 29 | 1006.4 |
| 20260509180705 | 85 | 67 | 0.0 | 0.9 | 0.00 | 0.00 | 0.00 | 34 | 1006.5 |